COSMOS 249 DEB, 3583

Orbit data source: Space-Track

COSMOS 249 DEB, 3583 is space debris in LEO originally from a launch on Sun, 20 Oct 1968 UTC launched from the Tyuratam Missile And Space Complex (TTMTR). Debris objects in space refer to the collection of defunct objects orbiting the Earth. Examples of debris include non-operational satellites, rocket bodies, and fragments generated from explosions, collisions, or faulty payload assembly.

Loading next visibility...
Identifier
3583, 1968-091R
Orbit
LEO
Country
Flag of CISCIS
Related business
Manufacturer
Unknown
Mission
Spacecraft
Bus & Motor
Unknown
Mass
Unknown
Launch date (UTC)
1968-10-20 (58 years ago)
Launch vehicle
Unknown
Launch site
Tyuratam Missile And Space Complex (TTMTR)
Object type
Payload
Rocket body
Debris
Shape & HBR
Unknown shape, 0.1 m
Radar Cross Section
Medium (>0.1 m² and <1 m²)

Expand to show TLE details & history
Last TLE update: 21 hours ago

TLE from 21 hours ago
0 COSMOS 249 DEB
1 03583U 68091R   26207.01359736  .00000881  00000-0  13359-2 0  9994
2 03583  62.0800  67.3725 0699202 154.1441 209.6311 12.85942633689216
Epoch: 2026-07-26T00:19Z
TLE epoch observation values (Epoch: 2026-07-26T00:19:34.811Z)
Latitude
-0.00006°
Longitude
118.7598°
Altitude
1,795.47 km
Speed
6.766 km/s
True Right ascension
04h 29m 29s
True Declination
0° 00' 00"
Sunlit
Object was in daylight at epoch
Visualization orbit readout
Latitude
Unknown
Longitude
Unknown
Altitude
Unknown
Speed
Unknown
Apparent Right ascension
Unknown
Apparent Declination
Unknown
Sunlit
N/A
Visualization observer readout
Local Sidereal Time
10:38:32
Azimuth
Unknown
Elevation
Unknown
Doppler factor
Unknown
Orbital elements
Apogee altitude
1,854.711 km
Perigee altitude
778.664 km
Semi-major axis
7,694.824 km
Eccentricity
0.06992
Inclination
62.08°
RAAN
67.3725°
Arg. of periapsis
154.1441°
True anomaly
205.95263°
Mean anomaly
209.6311°
Eccentric anomaly
207.76487°
Mean motion
3.21547 °/min
Orbital period
111.96 mins
BSTAR
0.0013359

Documentation

Showing up to 5 results
|